Find STARLINK-37848

NORAD ID: 100049 Int'l Des: 2026-161X Owner: SPXS Country: US Constellation: starlink operational

現在のビュー

3D地球を読み込み中...

About STARLINK-37848

STARLINK-37848 (NORAD 100049) is a starlink constellation satellite (v2 mini) launched Jul 14, 2026 by SPXS of US. with a mass of 575.00 kg.

次回通過

Passes for default location (London). Set your location on the main map for personalized predictions.

高度履歴

Loading altitude history...

軌道要素

1 A0049U 26161X 26227.32495388 -.01098251 00000-0 -31459-1 0 9991
2 A0049 53.1592 167.0239 0001504 126.5330 233.5813 15.38134317 5059
Epoch: Aug 15, 2026 • Age: 44 hours

現在のステータス

高度 464.2 km
遠地点 / 近地点 N/A
速度 7.64 km/s
衛星直下点 27.98°N, 72.74°W
打ち上げ日 Jul 14, 2026
運用期間 34 days
タイプ internet

技術仕様

分類 Payload
質量 575.00 kg
乾燥質量 530.00 kg
総質量 575.00 kg
長さ 0.30 m
直径 4.10 m
スパン 29.00 m
形状 Box + pan
製造者 SPXS
バスタイプ Starlink V2MO
フェーズステータス In Orbit
所有者/国 SPXS/US

Most Searched